Time,TemperatureF,DewpointF,PressureIn,WindDirection,WindDirectionDegrees,WindSpeedMPH,WindSpeedGustMPH,Humidity,HourlyPrecipIn,Conditions,Clouds,dailyrainin,SoftwareType,DateUTC
2013-06-29 00:01:00,72.9,66.4,29.66,North,0,0.0,0.0,80,0.00,,,0.00,WUHU216HW,2013-06-29 04:01:00,
2013-06-29 00:06:00,72.7,65.9,29.66,North,0,0.0,0.0,79,0.00,,,0.00,WUHU216HW,2013-06-29 04:06:00,
2013-06-29 00:11:00,72.5,65.7,29.66,North,0,0.0,0.0,79,0.00,,,0.00,WUHU216HW,2013-06-29 04:11:00,
2013-06-29 00:16:00,72.4,65.5,29.67,North,0,0.0,0.0,79,0.00,,,0.00,WUHU216HW,2013-06-29 04:16:00,
2013-06-29 00:21:00,72.5,66.1,29.66,North,0,0.0,0.0,80,0.00,,,0.00,WUHU216HW,2013-06-29 04:21:00,
2013-06-29 00:26:00,72.4,65.5,29.65,North,0,0.0,0.0,79,0.00,,,0.00,WUHU216HW,2013-06-29 04:26:00,
2013-06-29 00:31:00,72.2,65.4,29.66,North,0,0.0,0.0,79,0.00,,,0.00,WUHU216HW,2013-06-29 04:31:00,
2013-06-29 00:36:00,72.0,65.2,29.66,North,0,0.0,0.0,79,0.00,,,0.00,WUHU216HW,2013-06-29 04:36:00,
2013-06-29 00:42:00,71.6,64.8,29.66,North,0,0.0,0.0,79,0.00,,,0.00,WUHU216HW,2013-06-29 04:42:00,
2013-06-29 00:47:00,71.5,64.6,29.66,North,0,0.0,0.0,79,0.00,,,0.00,WUHU216HW,2013-06-29 04:47:00,
2013-06-29 00:52:00,71.1,64.6,29.66,North,0,0.0,0.0,80,0.00,,,0.00,WUHU216HW,2013-06-29 04:52:00,
2013-06-29 00:57:00,70.9,64.4,29.66,North,0,0.0,0.0,80,0.00,,,0.00,WUHU216HW,2013-06-29 04:57:00,
2013-06-29 01:02:00,70.9,64.4,29.65,North,0,0.0,0.0,80,0.00,,,0.00,WUHU216HW,2013-06-29 05:02:00,
2013-06-29 01:07:00,70.9,64.8,29.66,North,0,0.0,0.0,81,0.00,,,0.00,WUHU216HW,2013-06-29 05:07:00,
2013-06-29 01:12:00,70.6,64.5,29.66,North,0,0.0,0.0,81,0.00,,,0.00,WUHU216HW,2013-06-29 05:12:00,
2013-06-29 01:17:00,70.4,64.3,29.66,North,0,0.0,0.0,81,0.00,,,0.00,WUHU216HW,2013-06-29 05:17:00,
2013-06-29 01:22:00,70.2,64.5,29.66,North,0,0.0,0.0,82,0.00,,,0.00,WUHU216HW,2013-06-29 05:22:00,
2013-06-29 01:27:00,69.8,64.1,29.65,North,0,0.0,0.0,82,0.00,,,0.00,WUHU216HW,2013-06-29 05:27:00,
2013-06-29 01:32:00,69.7,64.3,29.65,North,0,0.0,0.0,83,0.00,,,0.00,WUHU216HW,2013-06-29 05:32:00,
2013-06-29 01:37:00,69.8,64.7,29.65,North,0,0.0,0.0,84,0.00,,,0.00,WUHU216HW,2013-06-29 05:37:00,
2013-06-29 01:42:00,69.8,64.4,29.65,North,0,0.0,0.0,83,0.00,,,0.00,WUHU216HW,2013-06-29 05:42:00,
2013-06-29 01:47:00,69.7,64.5,29.65,North,0,0.0,0.0,84,0.00,,,0.00,WUHU216HW,2013-06-29 05:47:00,
2013-06-29 01:52:00,69.5,64.4,29.65,North,0,0.0,0.0,84,0.00,,,0.00,WUHU216HW,2013-06-29 05:52:00,
2013-06-29 01:57:00,69.3,64.3,29.65,North,0,0.0,0.0,84,0.00,,,0.00,WUHU216HW,2013-06-29 05:57:00,
2013-06-29 02:02:00,69.3,64.3,29.64,North,0,0.0,0.0,84,0.00,,,0.00,WUHU216HW,2013-06-29 06:02:00,
2013-06-29 02:07:00,69.3,64.3,29.65,North,0,0.0,0.0,84,0.00,,,0.00,WUHU216HW,2013-06-29 06:07:00,
2013-06-29 02:12:00,69.3,64.3,29.64,North,0,0.0,0.0,84,0.00,,,0.00,WUHU216HW,2013-06-29 06:12:00,
2013-06-29 02:17:00,69.1,64.1,29.64,North,0,0.0,0.0,84,0.00,,,0.00,WUHU216HW,2013-06-29 06:17:00,
2013-06-29 02:22:00,68.9,63.9,29.64,North,0,0.0,0.0,84,0.00,,,0.00,WUHU216HW,2013-06-29 06:22:00,
2013-06-29 02:27:00,68.8,63.7,29.64,North,0,0.0,0.0,84,0.00,,,0.00,WUHU216HW,2013-06-29 06:27:00,
2013-06-29 02:32:00,68.9,64.3,29.64,North,0,0.0,0.0,85,0.00,,,0.00,WUHU216HW,2013-06-29 06:32:00,
2013-06-29 02:37:00,68.8,64.1,29.64,North,0,0.0,0.0,85,0.00,,,0.00,WUHU216HW,2013-06-29 06:37:00,
2013-06-29 02:42:00,68.8,64.1,29.64,North,0,0.0,0.0,85,0.00,,,0.00,WUHU216HW,2013-06-29 06:42:00,
2013-06-29 02:47:00,68.4,63.7,29.64,North,0,0.0,0.0,85,0.00,,,0.00,WUHU216HW,2013-06-29 06:47:00,
2013-06-29 02:52:00,68.0,63.7,29.64,North,0,0.0,0.0,86,0.00,,,0.00,WUHU216HW,2013-06-29 06:52:00,
2013-06-29 02:57:00,67.9,63.6,29.64,North,0,0.0,0.0,86,0.00,,,0.00,WUHU216HW,2013-06-29 06:57:00,
2013-06-29 03:02:00,67.7,63.4,29.64,North,0,0.0,0.0,86,0.00,,,0.00,WUHU216HW,2013-06-29 07:02:00,
2013-06-29 03:07:00,68.0,63.7,29.64,North,0,0.0,0.0,86,0.00,,,0.00,WUHU216HW,2013-06-29 07:07:00,
2013-06-29 03:12:00,68.2,63.9,29.64,North,0,0.0,0.0,86,0.00,,,0.00,WUHU216HW,2013-06-29 07:12:00,
2013-06-29 03:17:00,68.0,63.7,29.64,North,0,0.0,0.0,86,0.00,,,0.00,WUHU216HW,2013-06-29 07:17:00,
2013-06-29 03:22:00,68.0,63.7,29.64,North,0,0.0,0.0,86,0.00,,,0.00,WUHU216HW,2013-06-29 07:22:00,
2013-06-29 03:27:00,67.9,63.6,29.64,North,0,0.0,0.0,86,0.00,,,0.00,WUHU216HW,2013-06-29 07:27:00,
2013-06-29 03:32:00,67.9,63.8,29.64,North,0,0.0,0.0,87,0.00,,,0.00,WUHU216HW,2013-06-29 07:32:00,
2013-06-29 03:37:00,67.9,63.8,29.64,North,0,0.0,0.0,87,0.00,,,0.00,WUHU216HW,2013-06-29 07:37:00,
2013-06-29 03:42:00,67.7,63.6,29.63,North,0,0.0,0.0,87,0.00,,,0.00,WUHU216HW,2013-06-29 07:42:00,
2013-06-29 03:47:00,67.5,63.5,29.63,North,0,0.0,0.0,87,0.00,,,0.00,WUHU216HW,2013-06-29 07:47:00,
2013-06-29 03:52:00,67.7,64.0,29.63,North,0,0.0,0.0,88,0.00,,,0.00,WUHU216HW,2013-06-29 07:52:00,
2013-06-29 03:57:00,67.7,64.0,29.63,North,0,0.0,0.0,88,0.00,,,0.00,WUHU216HW,2013-06-29 07:57:00,
2013-06-29 04:02:00,67.5,63.8,29.63,North,0,0.0,0.0,88,0.00,,,0.00,WUHU216HW,2013-06-29 08:02:00,
2013-06-29 04:07:00,67.3,63.6,29.63,North,0,0.0,0.0,88,0.00,,,0.00,WUHU216HW,2013-06-29 08:07:00,
2013-06-29 04:12:00,67.5,63.8,29.63,North,0,0.0,0.0,88,0.00,,,0.00,WUHU216HW,2013-06-29 08:12:00,
2013-06-29 04:17:00,67.3,63.6,29.63,North,0,0.0,0.0,88,0.00,,,0.00,WUHU216HW,2013-06-29 08:17:00,
2013-06-29 04:22:00,67.3,63.6,29.63,North,0,0.0,0.0,88,0.00,,,0.00,WUHU216HW,2013-06-29 08:22:00,
2013-06-29 04:27:00,67.3,63.6,29.63,North,0,0.0,0.0,88,0.00,,,0.00,WUHU216HW,2013-06-29 08:27:00,
2013-06-29 04:32:00,67.1,63.5,29.63,North,0,0.0,0.0,88,0.00,,,0.00,WUHU216HW,2013-06-29 08:32:00,
2013-06-29 04:37:00,67.3,63.9,29.63,North,0,0.0,0.0,89,0.00,,,0.00,WUHU216HW,2013-06-29 08:37:00,
2013-06-29 04:42:00,67.3,63.9,29.63,North,0,0.0,0.0,89,0.00,,,0.00,WUHU216HW,2013-06-29 08:42:00,
2013-06-29 04:47:00,67.3,63.9,29.63,North,0,0.0,0.0,89,0.00,,,0.00,WUHU216HW,2013-06-29 08:47:00,
2013-06-29 04:52:00,67.5,64.1,29.63,North,0,0.0,0.0,89,0.00,,,0.00,WUHU216HW,2013-06-29 08:52:00,
2013-06-29 04:57:00,67.7,64.3,29.64,North,0,0.0,0.0,89,0.00,,,0.00,WUHU216HW,2013-06-29 08:57:00,
2013-06-29 05:02:00,67.9,64.4,29.64,North,0,0.0,0.0,89,0.00,,,0.00,WUHU216HW,2013-06-29 09:02:00,
2013-06-29 05:07:00,68.0,64.6,29.63,North,0,0.0,0.0,89,0.00,,,0.00,WUHU216HW,2013-06-29 09:07:00,
2013-06-29 05:12:00,67.9,64.4,29.63,North,0,0.0,0.0,89,0.00,,,0.00,WUHU216HW,2013-06-29 09:12:00,
2013-06-29 05:17:00,67.7,64.3,29.64,North,0,0.0,0.0,89,0.00,,,0.00,WUHU216HW,2013-06-29 09:17:00,
2013-06-29 05:22:00,67.5,64.1,29.64,North,0,0.0,0.0,89,0.00,,,0.00,WUHU216HW,2013-06-29 09:22:00,
2013-06-29 05:27:00,67.3,63.9,29.64,North,0,0.0,0.0,89,0.00,,,0.00,WUHU216HW,2013-06-29 09:27:00,
2013-06-29 05:32:00,67.3,64.3,29.64,North,0,0.0,0.0,90,0.00,,,0.00,WUHU216HW,2013-06-29 09:32:00,
2013-06-29 05:37:00,67.5,64.4,29.64,North,0,0.0,0.0,90,0.00,,,0.00,WUHU216HW,2013-06-29 09:37:00,
2013-06-29 05:42:00,67.5,64.4,29.64,North,0,0.0,0.0,90,0.00,,,0.00,WUHU216HW,2013-06-29 09:42:00,
2013-06-29 05:47:00,67.3,64.3,29.64,North,0,0.0,0.0,90,0.00,,,0.00,WUHU216HW,2013-06-29 09:47:00,
2013-06-29 05:52:00,67.3,64.3,29.64,North,0,0.0,0.0,90,0.00,,,0.00,WUHU216HW,2013-06-29 09:52:00,
2013-06-29 05:57:00,67.3,64.3,29.64,North,0,0.0,0.0,90,0.00,,,0.00,WUHU216HW,2013-06-29 09:57:00,
2013-06-29 06:02:00,67.5,64.7,29.65,North,0,0.0,0.0,91,0.00,,,0.00,WUHU216HW,2013-06-29 10:02:00,
2013-06-29 06:07:00,67.7,64.9,29.65,North,0,0.0,0.0,91,0.00,,,0.00,WUHU216HW,2013-06-29 10:07:00,
2013-06-29 06:12:00,67.9,64.8,29.64,North,0,0.0,0.0,90,0.00,,,0.00,WUHU216HW,2013-06-29 10:12:00,
2013-06-29 06:17:00,68.0,65.3,29.64,North,0,0.0,0.0,91,0.00,,,0.00,WUHU216HW,2013-06-29 10:17:00,
2013-06-29 06:22:00,68.0,65.3,29.64,North,0,0.0,0.0,91,0.00,,,0.00,WUHU216HW,2013-06-29 10:22:00,
2013-06-29 06:27:00,68.0,65.3,29.64,North,0,0.0,0.0,91,0.00,,,0.00,WUHU216HW,2013-06-29 10:27:00,
2013-06-29 06:32:00,68.2,65.4,29.64,North,0,0.0,0.0,91,0.00,,,0.00,WUHU216HW,2013-06-29 10:32:00,
2013-06-29 06:37:00,68.4,65.6,29.64,North,0,0.0,0.0,91,0.00,,,0.00,WUHU216HW,2013-06-29 10:37:00,
2013-06-29 06:42:00,68.6,65.8,29.65,North,0,0.0,0.0,91,0.00,,,0.00,WUHU216HW,2013-06-29 10:42:00,
2013-06-29 06:47:00,68.8,66.0,29.65,North,0,0.0,0.0,91,0.00,,,0.00,WUHU216HW,2013-06-29 10:47:00,
2013-06-29 06:52:00,68.8,66.0,29.65,North,0,0.0,0.0,91,0.00,,,0.00,WUHU216HW,2013-06-29 10:52:00,
2013-06-29 06:57:00,68.9,66.2,29.65,North,0,0.0,0.0,91,0.00,,,0.00,WUHU216HW,2013-06-29 10:57:00,
2013-06-29 07:02:00,68.9,66.2,29.65,North,0,0.0,0.0,91,0.00,,,0.00,WUHU216HW,2013-06-29 11:02:00,
2013-06-29 07:07:00,69.1,66.7,29.65,North,0,0.0,0.0,92,0.00,,,0.00,WUHU216HW,2013-06-29 11:07:00,
2013-06-29 07:12:00,69.5,67.1,29.65,North,0,0.0,0.0,92,0.00,,,0.00,WUHU216HW,2013-06-29 11:12:00,
2013-06-29 07:17:00,69.7,67.2,29.65,North,0,0.0,0.0,92,0.00,,,0.00,WUHU216HW,2013-06-29 11:17:00,
2013-06-29 07:22:00,69.8,67.1,29.65,North,0,0.0,0.0,91,0.00,,,0.00,WUHU216HW,2013-06-29 11:22:00,
2013-06-29 07:27:00,69.8,67.1,29.65,North,0,0.0,0.0,91,0.00,,,0.00,WUHU216HW,2013-06-29 11:27:00,
2013-06-29 07:32:00,70.0,67.6,29.65,North,0,0.0,0.0,92,0.00,,,0.00,WUHU216HW,2013-06-29 11:32:00,
2013-06-29 07:37:00,70.0,67.6,29.65,North,0,0.0,0.0,92,0.00,,,0.00,WUHU216HW,2013-06-29 11:37:00,
2013-06-29 07:42:00,70.2,67.8,29.65,North,0,0.0,0.0,92,0.00,,,0.00,WUHU216HW,2013-06-29 11:42:00,
2013-06-29 07:47:00,70.4,68.0,29.65,North,0,0.0,0.0,92,0.00,,,0.00,WUHU216HW,2013-06-29 11:47:00,
2013-06-29 07:52:00,70.4,68.0,29.65,North,0,0.0,0.0,92,0.00,,,0.00,WUHU216HW,2013-06-29 11:52:00,
2013-06-29 07:57:00,70.6,68.1,29.65,North,0,0.0,0.0,92,0.00,,,0.00,WUHU216HW,2013-06-29 11:57:00,
2013-06-29 08:02:00,70.7,68.3,29.65,North,0,0.0,0.0,92,0.00,,,0.00,WUHU216HW,2013-06-29 12:02:00,
2013-06-29 08:07:00,70.9,68.5,29.65,North,0,0.0,0.0,92,0.00,,,0.00,WUHU216HW,2013-06-29 12:07:00,
2013-06-29 08:12:00,70.9,68.5,29.65,North,0,0.0,0.0,92,0.00,,,0.00,WUHU216HW,2013-06-29 12:12:00,
2013-06-29 08:17:00,71.1,68.7,29.65,North,0,0.0,0.0,92,0.00,,,0.00,WUHU216HW,2013-06-29 12:17:00,
2013-06-29 08:22:00,71.3,68.9,29.65,North,0,0.0,0.0,92,0.00,,,0.00,WUHU216HW,2013-06-29 12:22:00,
2013-06-29 08:27:00,71.5,69.0,29.65,North,0,0.0,0.0,92,0.00,,,0.00,WUHU216HW,2013-06-29 12:27:00,
2013-06-29 08:32:00,71.6,69.2,29.65,North,0,0.0,0.0,92,0.00,,,0.00,WUHU216HW,2013-06-29 12:32:00,
2013-06-29 08:37:00,71.6,69.2,29.65,North,0,0.0,0.0,92,0.00,,,0.00,WUHU216HW,2013-06-29 12:37:00,
2013-06-29 08:42:00,71.8,69.0,29.65,North,0,0.0,0.0,91,0.00,,,0.00,WUHU216HW,2013-06-29 12:42:00,
2013-06-29 08:47:00,72.0,69.2,29.65,North,0,0.0,0.0,91,0.00,,,0.00,WUHU216HW,2013-06-29 12:47:00,
2013-06-29 08:52:00,72.2,69.4,29.65,North,0,0.0,0.0,91,0.00,,,0.00,WUHU216HW,2013-06-29 12:52:00,
2013-06-29 08:57:00,72.4,69.6,29.65,North,0,0.0,0.0,91,0.00,,,0.00,WUHU216HW,2013-06-29 12:57:00,
2013-06-29 09:02:00,72.4,69.6,29.65,North,0,0.0,0.0,91,0.00,,,0.00,WUHU216HW,2013-06-29 13:02:00,
2013-06-29 09:07:00,72.7,69.7,29.65,North,0,0.0,0.0,90,0.00,,,0.00,WUHU216HW,2013-06-29 13:07:00,
2013-06-29 09:12:00,72.9,69.8,29.65,North,0,0.0,0.0,90,0.00,,,0.00,WUHU216HW,2013-06-29 13:12:00,
2013-06-29 09:17:00,73.1,69.7,29.65,North,0,0.0,0.0,89,0.00,,,0.00,WUHU216HW,2013-06-29 13:17:00,
2013-06-29 09:22:00,73.3,69.8,29.65,North,0,0.0,0.0,89,0.00,,,0.00,WUHU216HW,2013-06-29 13:22:00,
2013-06-29 09:27:00,73.4,69.4,29.65,North,0,0.0,0.0,87,0.00,,,0.00,WUHU216HW,2013-06-29 13:27:00,
2013-06-29 09:32:00,73.8,69.4,29.65,North,0,0.0,0.0,86,0.00,,,0.00,WUHU216HW,2013-06-29 13:32:00,
2013-06-29 09:37:00,74.0,69.9,29.65,North,0,0.0,0.0,87,0.00,,,0.00,WUHU216HW,2013-06-29 13:37:00,
2013-06-29 09:42:00,73.8,69.8,29.66,North,0,0.0,0.0,87,0.00,,,0.00,WUHU216HW,2013-06-29 13:42:00,
2013-06-29 09:47:00,74.0,69.9,29.66,North,0,0.0,0.0,87,0.00,,,0.00,WUHU216HW,2013-06-29 13:47:00,
2013-06-29 09:52:00,74.2,69.4,29.66,North,0,0.0,0.0,85,0.00,,,0.00,WUHU216HW,2013-06-29 13:52:00,
2013-06-29 09:57:00,74.2,69.8,29.66,North,0,0.0,0.0,86,0.00,,,0.00,WUHU216HW,2013-06-29 13:57:00,
2013-06-29 10:02:00,74.3,69.6,29.66,North,0,0.0,0.0,85,0.00,,,0.00,WUHU216HW,2013-06-29 14:02:00,
2013-06-29 10:07:00,74.2,69.8,29.66,North,0,0.0,0.0,86,0.00,,,0.00,WUHU216HW,2013-06-29 14:07:00,
2013-06-29 10:12:00,74.2,70.1,29.66,North,0,0.0,0.0,87,0.00,,,0.00,WUHU216HW,2013-06-29 14:12:00,
2013-06-29 10:17:00,74.2,70.1,29.66,North,0,0.0,0.0,87,0.00,,,0.00,WUHU216HW,2013-06-29 14:17:00,
2013-06-29 10:22:00,74.2,70.1,29.66,North,0,0.0,0.0,87,0.00,,,0.00,WUHU216HW,2013-06-29 14:22:00,
2013-06-29 10:27:00,74.5,70.1,29.66,North,0,0.0,0.0,86,0.00,,,0.00,WUHU216HW,2013-06-29 14:27:00,
2013-06-29 10:32:00,74.7,69.9,29.66,North,0,0.0,0.0,85,0.00,,,0.00,WUHU216HW,2013-06-29 14:32:00,
2013-06-29 10:37:00,74.9,70.1,29.66,North,0,0.0,0.0,85,0.00,,,0.00,WUHU216HW,2013-06-29 14:37:00,
2013-06-29 10:42:00,75.2,69.1,29.66,North,0,0.0,0.0,81,0.00,,,0.00,WUHU216HW,2013-06-29 14:42:00,
2013-06-29 10:47:00,75.4,69.3,29.66,North,0,0.0,0.0,81,0.00,,,0.00,WUHU216HW,2013-06-29 14:47:00,
2013-06-29 10:52:00,76.0,69.8,29.66,North,0,0.0,0.0,81,0.00,,,0.00,WUHU216HW,2013-06-29 14:52:00,
2013-06-29 10:57:00,76.1,70.3,29.66,North,0,0.0,0.0,82,0.00,,,0.00,WUHU216HW,2013-06-29 14:57:00,
2013-06-29 11:02:00,76.3,68.9,29.66,North,0,0.0,0.0,78,0.00,,,0.00,WUHU216HW,2013-06-29 15:02:00,
2013-06-29 11:07:00,76.7,69.3,29.66,North,0,0.0,0.0,78,0.00,,,0.00,WUHU216HW,2013-06-29 15:07:00,
2013-06-29 11:12:00,76.9,70.2,29.66,North,0,0.0,0.0,80,0.00,,,0.00,WUHU216HW,2013-06-29 15:12:00,
2013-06-29 11:17:00,77.4,70.0,29.66,North,0,0.0,0.0,78,0.00,,,0.00,WUHU216HW,2013-06-29 15:17:00,
2013-06-29 11:22:00,77.8,69.2,29.66,North,0,0.0,0.0,75,0.00,,,0.00,WUHU216HW,2013-06-29 15:22:00,
2013-06-29 11:27:00,78.1,69.5,29.66,North,0,0.0,0.0,75,0.00,,,0.00,WUHU216HW,2013-06-29 15:27:00,
2013-06-29 11:32:00,78.3,68.1,29.66,North,0,0.0,0.0,71,0.00,,,0.00,WUHU216HW,2013-06-29 15:32:00,
2013-06-29 11:37:00,78.7,68.0,29.66,North,0,0.0,0.0,70,0.00,,,0.00,WUHU216HW,2013-06-29 15:37:00,
2013-06-29 11:42:00,79.2,70.2,29.66,North,0,0.0,0.0,74,0.00,,,0.00,WUHU216HW,2013-06-29 15:42:00,
2013-06-29 11:47:00,79.2,70.2,29.66,North,0,0.0,0.0,74,0.00,,,0.00,WUHU216HW,2013-06-29 15:47:00,
2013-06-29 11:52:00,79.6,69.8,29.66,North,0,0.0,0.0,72,0.00,,,0.00,WUHU216HW,2013-06-29 15:52:00,
2013-06-29 11:57:00,80.1,71.5,29.66,North,0,0.0,0.0,75,0.00,,,0.00,WUHU216HW,2013-06-29 15:57:00,
2013-06-29 12:02:00,80.1,67.7,29.66,North,0,0.0,0.0,66,0.00,,,0.00,WUHU216HW,2013-06-29 16:02:00,
2013-06-29 12:07:00,80.5,68.0,29.66,North,0,0.0,0.0,66,0.00,,,0.00,WUHU216HW,2013-06-29 16:07:00,
2013-06-29 12:12:00,80.8,67.1,29.66,North,0,0.0,0.0,63,0.00,,,0.00,WUHU216HW,2013-06-29 16:12:00,
2013-06-29 12:17:00,81.2,70.0,29.66,North,0,0.0,0.0,69,0.00,,,0.00,WUHU216HW,2013-06-29 16:17:00,
2013-06-29 12:22:00,81.5,68.1,29.66,North,0,0.0,0.0,64,0.00,,,0.00,WUHU216HW,2013-06-29 16:22:00,
2013-06-29 12:27:00,82.1,69.0,29.66,North,0,0.0,0.0,65,0.00,,,0.00,WUHU216HW,2013-06-29 16:27:00,
2013-06-29 12:32:00,82.3,68.8,29.66,North,0,0.0,0.0,64,0.00,,,0.00,WUHU216HW,2013-06-29 16:32:00,
2013-06-29 12:37:00,82.4,68.0,29.66,North,0,0.0,0.0,62,0.00,,,0.00,WUHU216HW,2013-06-29 16:37:00,
2013-06-29 12:42:00,83.0,69.5,29.65,North,0,0.0,0.0,64,0.00,,,0.00,WUHU216HW,2013-06-29 16:42:00,
2013-06-29 12:47:00,83.5,69.6,29.66,North,0,0.0,0.0,63,0.00,,,0.00,WUHU216HW,2013-06-29 16:47:00,
2013-06-29 12:52:00,83.5,66.7,29.66,North,0,0.0,0.0,57,0.00,,,0.00,WUHU216HW,2013-06-29 16:52:00,
2013-06-29 12:57:00,83.7,69.3,29.65,North,0,0.0,0.0,62,0.00,,,0.00,WUHU216HW,2013-06-29 16:57:00,
2013-06-29 13:02:00,83.7,69.3,29.65,North,0,0.0,0.0,62,0.00,,,0.00,WUHU216HW,2013-06-29 17:02:00,
2013-06-29 13:07:00,83.7,67.9,29.65,North,0,0.0,0.0,59,0.00,,,0.00,WUHU216HW,2013-06-29 17:07:00,
2013-06-29 13:12:00,84.1,67.7,29.65,North,0,0.0,0.0,58,0.00,,,0.00,WUHU216HW,2013-06-29 17:12:00,
2013-06-29 13:17:00,83.9,67.5,29.65,North,0,0.0,0.0,58,0.00,,,0.00,WUHU216HW,2013-06-29 17:17:00,
2013-06-29 13:22:00,83.9,66.0,29.65,North,0,0.0,0.0,55,0.00,,,0.00,WUHU216HW,2013-06-29 17:22:00,
2013-06-29 13:27:00,83.7,68.4,29.65,North,0,0.0,0.0,60,0.00,,,0.00,WUHU216HW,2013-06-29 17:27:00,
2013-06-29 13:32:00,84.1,68.8,29.65,North,0,0.0,0.0,60,0.00,,,0.00,WUHU216HW,2013-06-29 17:32:00,
2013-06-29 13:37:00,84.2,69.4,29.65,North,0,0.0,0.0,61,0.00,,,0.00,WUHU216HW,2013-06-29 17:37:00,
2013-06-29 13:42:00,84.1,70.1,29.65,North,0,0.0,0.0,63,0.00,,,0.00,WUHU216HW,2013-06-29 17:42:00,
2013-06-29 13:47:00,84.2,69.8,29.64,North,0,0.0,0.0,62,0.00,,,0.00,WUHU216HW,2013-06-29 17:47:00,
2013-06-29 13:52:00,84.1,68.8,29.64,North,0,0.0,0.0,60,0.00,,,0.00,WUHU216HW,2013-06-29 17:52:00,
2013-06-29 13:57:00,84.2,64.3,29.64,North,0,0.0,0.0,51,0.00,,,0.00,WUHU216HW,2013-06-29 17:57:00,
2013-06-29 14:02:00,84.6,66.2,29.64,North,0,0.0,0.0,54,0.00,,,0.00,WUHU216HW,2013-06-29 18:02:00,
2013-06-29 14:07:00,85.0,67.5,29.63,North,0,0.0,0.0,56,0.00,,,0.00,WUHU216HW,2013-06-29 18:07:00,
2013-06-29 14:12:00,84.8,67.3,29.63,North,0,0.0,0.0,56,0.00,,,0.00,WUHU216HW,2013-06-29 18:12:00,
2013-06-29 14:17:00,85.0,66.4,29.63,North,0,0.0,0.0,54,0.00,,,0.00,WUHU216HW,2013-06-29 18:17:00,
2013-06-29 14:22:00,85.3,67.9,29.63,North,0,0.0,0.0,56,0.00,,,0.00,WUHU216HW,2013-06-29 18:22:00,
2013-06-29 14:27:00,85.5,66.4,29.63,North,0,0.0,0.0,53,0.00,,,0.00,WUHU216HW,2013-06-29 18:27:00,
2013-06-29 14:32:00,85.7,68.7,29.63,North,0,0.0,0.0,57,0.00,,,0.00,WUHU216HW,2013-06-29 18:32:00,
2013-06-29 14:37:00,85.3,68.3,29.63,North,0,0.0,0.0,57,0.00,,,0.00,WUHU216HW,2013-06-29 18:37:00,
2013-06-29 14:42:00,84.6,69.8,29.63,North,0,0.0,0.0,61,0.00,,,0.00,WUHU216HW,2013-06-29 18:42:00,
2013-06-29 14:47:00,84.8,69.8,29.63,North,0,0.0,0.0,61,0.00,,,0.00,WUHU216HW,2013-06-29 18:47:00,
2013-06-29 14:52:00,84.6,67.7,29.63,North,0,0.0,0.0,57,0.00,,,0.00,WUHU216HW,2013-06-29 18:52:00,
2013-06-29 14:57:00,84.6,67.1,29.63,North,0,0.0,0.0,56,0.00,,,0.00,WUHU216HW,2013-06-29 18:57:00,
2013-06-29 15:02:00,84.8,69.4,29.63,North,0,0.0,0.0,60,0.00,,,0.00,WUHU216HW,2013-06-29 19:02:00,
2013-06-29 15:07:00,85.1,68.7,29.63,North,0,0.0,0.0,58,0.00,,,0.00,WUHU216HW,2013-06-29 19:07:00,
2013-06-29 15:12:00,85.0,68.6,29.63,North,0,0.0,0.0,58,0.00,,,0.00,WUHU216HW,2013-06-29 19:12:00,
2013-06-29 15:17:00,85.0,70.0,29.63,North,0,0.0,0.0,61,0.00,,,0.00,WUHU216HW,2013-06-29 19:17:00,
2013-06-29 15:22:00,84.1,69.7,29.63,North,0,0.0,0.0,62,0.00,,,0.00,WUHU216HW,2013-06-29 19:22:00,
2013-06-29 15:23:00,83.9,69.9,29.63,North,0,0.0,0.0,63,0.00,,,0.00,WUHU216HW,2013-06-29 19:23:00,
2013-06-29 15:28:00,83.5,70.0,29.62,North,0,0.0,0.0,64,0.00,,,0.00,WUHU216HW,2013-06-29 19:28:00,
2013-06-29 15:33:00,83.5,69.6,29.62,North,0,0.0,0.0,63,0.00,,,0.00,WUHU216HW,2013-06-29 19:33:00,
2013-06-29 15:38:00,83.5,69.6,29.62,North,0,0.0,0.0,63,0.00,,,0.00,WUHU216HW,2013-06-29 19:38:00,
2013-06-29 15:59:00,81.4,69.8,29.62,North,0,0.0,0.0,68,0.00,,,0.00,WUHU216HW,2013-06-29 19:59:00,
2013-06-29 16:04:00,81.7,70.1,29.62,North,0,0.0,0.0,68,0.00,,,0.00,WUHU216HW,2013-06-29 20:04:00,
2013-06-29 16:09:00,81.5,69.5,29.62,North,0,0.0,0.0,67,0.00,,,0.00,WUHU216HW,2013-06-29 20:09:00,
2013-06-29 16:14:00,81.4,70.2,29.62,North,0,0.0,0.0,69,0.00,,,0.00,WUHU216HW,2013-06-29 20:14:00,
2013-06-29 16:19:00,81.4,70.2,29.61,North,0,0.0,0.0,69,0.00,,,0.00,WUHU216HW,2013-06-29 20:19:00,
2013-06-29 16:24:00,81.5,69.9,29.61,North,0,0.0,0.0,68,0.00,,,0.00,WUHU216HW,2013-06-29 20:24:00,
2013-06-29 16:29:00,81.9,70.3,29.61,North,0,0.0,0.0,68,0.00,,,0.00,WUHU216HW,2013-06-29 20:29:00,
2013-06-29 16:34:00,82.1,69.5,29.61,North,0,0.0,0.0,66,0.00,,,0.00,WUHU216HW,2013-06-29 20:34:00,
2013-06-29 16:39:00,82.4,69.8,29.61,North,0,0.0,0.0,66,0.00,,,0.00,WUHU216HW,2013-06-29 20:39:00,
2013-06-29 16:44:00,82.4,70.7,29.61,North,0,0.0,0.0,68,0.00,,,0.00,WUHU216HW,2013-06-29 20:44:00,
2013-06-29 16:49:00,82.1,69.5,29.61,North,0,0.0,0.0,66,0.00,,,0.00,WUHU216HW,2013-06-29 20:49:00,
2013-06-29 16:54:00,81.9,69.4,29.61,North,0,0.0,0.0,66,0.00,,,0.00,WUHU216HW,2013-06-29 20:54:00,
2013-06-29 16:59:00,81.9,69.4,29.61,North,0,0.0,0.0,66,0.00,,,0.00,WUHU216HW,2013-06-29 20:59:00,
2013-06-29 17:04:00,81.9,69.4,29.61,North,0,0.0,0.0,66,0.00,,,0.00,WUHU216HW,2013-06-29 21:04:00,
2013-06-29 17:09:00,82.1,68.6,29.61,North,0,0.0,0.0,64,0.00,,,0.00,WUHU216HW,2013-06-29 21:09:00,
2013-06-29 17:14:00,82.3,69.7,29.61,North,0,0.0,0.0,66,0.00,,,0.00,WUHU216HW,2013-06-29 21:14:00,
2013-06-29 17:19:00,82.1,69.5,29.61,North,0,0.0,0.0,66,0.00,,,0.00,WUHU216HW,2013-06-29 21:19:00,
2013-06-29 17:24:00,81.9,69.4,29.60,North,0,0.0,0.0,66,0.00,,,0.00,WUHU216HW,2013-06-29 21:24:00,
2013-06-29 17:29:00,81.9,69.0,29.60,North,0,0.0,0.0,65,0.00,,,0.00,WUHU216HW,2013-06-29 21:29:00,
2013-06-29 17:34:00,81.7,68.3,29.60,North,0,0.0,0.0,64,0.00,,,0.00,WUHU216HW,2013-06-29 21:34:00,
2013-06-29 17:39:00,81.7,69.2,29.60,North,0,0.0,0.0,66,0.00,,,0.00,WUHU216HW,2013-06-29 21:39:00,
2013-06-29 17:44:00,81.5,68.6,29.60,North,0,0.0,0.0,65,0.00,,,0.00,WUHU216HW,2013-06-29 21:44:00,
2013-06-29 17:49:00,81.4,67.1,29.60,North,0,0.0,0.0,62,0.00,,,0.00,WUHU216HW,2013-06-29 21:49:00,
2013-06-29 17:54:00,81.5,68.1,29.60,North,0,0.0,0.0,64,0.00,,,0.00,WUHU216HW,2013-06-29 21:54:00,
2013-06-29 17:59:00,81.4,68.4,29.60,North,0,0.0,0.0,65,0.00,,,0.00,WUHU216HW,2013-06-29 21:59:00,
2013-06-29 18:04:00,81.2,66.4,29.60,North,0,0.0,0.0,61,0.00,,,0.00,WUHU216HW,2013-06-29 22:04:00,
2013-06-29 18:09:00,81.2,68.2,29.60,North,0,0.0,0.0,65,0.00,,,0.00,WUHU216HW,2013-06-29 22:09:00,
2013-06-29 18:14:00,80.8,68.4,29.60,North,0,0.0,0.0,66,0.00,,,0.00,WUHU216HW,2013-06-29 22:14:00,
2013-06-29 18:19:00,80.6,67.8,29.60,North,0,0.0,0.0,65,0.00,,,0.00,WUHU216HW,2013-06-29 22:19:00,
2013-06-29 18:24:00,80.6,68.7,29.60,North,0,0.0,0.0,67,0.00,,,0.00,WUHU216HW,2013-06-29 22:24:00,
2013-06-29 18:29:00,80.5,68.0,29.61,North,0,0.0,0.0,66,0.00,,,0.00,WUHU216HW,2013-06-29 22:29:00,
2013-06-29 18:34:00,80.3,68.3,29.60,North,0,0.0,0.0,67,0.00,,,0.00,WUHU216HW,2013-06-29 22:34:00,
2013-06-29 18:39:00,80.1,68.1,29.60,North,0,0.0,0.0,67,0.00,,,0.00,WUHU216HW,2013-06-29 22:39:00,
2013-06-29 18:44:00,80.1,69.0,29.60,North,0,0.0,0.0,69,0.00,,,0.00,WUHU216HW,2013-06-29 22:44:00,
2013-06-29 18:49:00,79.9,68.9,29.61,North,0,0.0,0.0,69,0.00,,,0.00,WUHU216HW,2013-06-29 22:49:00,
2013-06-29 18:54:00,79.6,68.5,29.61,North,0,0.0,0.0,69,0.00,,,0.00,WUHU216HW,2013-06-29 22:54:00,
2013-06-29 18:59:00,79.6,68.9,29.61,North,0,0.0,0.0,70,0.00,,,0.00,WUHU216HW,2013-06-29 22:59:00,
2013-06-29 19:04:00,79.7,68.7,29.61,North,0,0.0,0.0,69,0.00,,,0.00,WUHU216HW,2013-06-29 23:04:00,
2013-06-29 19:09:00,79.7,69.1,29.61,North,0,0.0,0.0,70,0.00,,,0.00,WUHU216HW,2013-06-29 23:09:00,
2013-06-29 19:14:00,79.4,68.3,29.61,North,0,0.0,0.0,69,0.00,,,0.00,WUHU216HW,2013-06-29 23:14:00,
2013-06-29 19:19:00,79.0,68.4,29.61,North,0,0.0,0.0,70,0.00,,,0.00,WUHU216HW,2013-06-29 23:19:00,
2013-06-29 19:24:00,78.8,68.6,29.61,North,0,0.0,0.0,71,0.00,,,0.00,WUHU216HW,2013-06-29 23:24:00,
2013-06-29 19:29:00,78.7,68.0,29.61,North,0,0.0,0.0,70,0.00,,,0.00,WUHU216HW,2013-06-29 23:29:00,
2013-06-29 19:34:00,78.5,68.3,29.62,North,0,0.0,0.0,71,0.00,,,0.00,WUHU216HW,2013-06-29 23:34:00,
2013-06-29 19:39:00,78.5,68.3,29.62,North,0,0.0,0.0,71,0.00,,,0.00,WUHU216HW,2013-06-29 23:39:00,
2013-06-29 19:44:00,78.5,68.3,29.61,North,0,0.0,0.0,71,0.00,,,0.00,WUHU216HW,2013-06-29 23:44:00,
2013-06-29 19:49:00,78.5,68.7,29.61,North,0,0.0,0.0,72,0.00,,,0.00,WUHU216HW,2013-06-29 23:49:00,
2013-06-29 19:54:00,78.3,68.5,29.61,North,0,0.0,0.0,72,0.00,,,0.00,WUHU216HW,2013-06-29 23:54:00,
2013-06-29 19:59:00,78.1,68.8,29.61,North,0,0.0,0.0,73,0.00,,,0.00,WUHU216HW,2013-06-29 23:59:00,
2013-06-29 20:04:00,77.9,68.2,29.61,North,0,0.0,0.0,72,0.00,,,0.00,WUHU216HW,2013-06-30 00:04:00,
2013-06-29 20:09:00,77.9,68.6,29.61,North,0,0.0,0.0,73,0.00,,,0.00,WUHU216HW,2013-06-30 00:09:00,
2013-06-29 20:14:00,77.8,68.4,29.61,North,0,0.0,0.0,73,0.00,,,0.00,WUHU216HW,2013-06-30 00:14:00,
2013-06-29 20:19:00,77.8,68.8,29.61,North,0,0.0,0.0,74,0.00,,,0.00,WUHU216HW,2013-06-30 00:19:00,
2013-06-29 20:24:00,77.4,68.5,29.61,North,0,0.0,0.0,74,0.00,,,0.00,WUHU216HW,2013-06-30 00:24:00,
2013-06-29 20:29:00,77.4,68.9,29.61,North,0,0.0,0.0,75,0.00,,,0.00,WUHU216HW,2013-06-30 00:29:00,
2013-06-29 20:34:00,77.2,68.3,29.61,North,0,0.0,0.0,74,0.00,,,0.00,WUHU216HW,2013-06-30 00:34:00,
2013-06-29 20:39:00,77.0,68.1,29.61,North,0,0.0,0.0,74,0.00,,,0.00,WUHU216HW,2013-06-30 00:39:00,
2013-06-29 20:44:00,76.9,68.0,29.61,North,0,0.0,0.0,74,0.00,,,0.00,WUHU216HW,2013-06-30 00:44:00,
2013-06-29 20:49:00,76.7,67.8,29.62,North,0,0.0,0.0,74,0.00,,,0.00,WUHU216HW,2013-06-30 00:49:00,
2013-06-29 20:54:00,76.3,67.4,29.62,North,0,0.0,0.0,74,0.00,,,0.00,WUHU216HW,2013-06-30 00:54:00,
2013-06-29 20:59:00,76.3,67.4,29.62,North,0,0.0,0.0,74,0.00,,,0.00,WUHU216HW,2013-06-30 00:59:00,
2013-06-29 21:04:00,76.0,67.5,29.62,North,0,0.0,0.0,75,0.00,,,0.00,WUHU216HW,2013-06-30 01:04:00,
2013-06-29 21:09:00,76.0,67.5,29.63,North,0,0.0,0.0,75,0.00,,,0.00,WUHU216HW,2013-06-30 01:09:00,
2013-06-29 21:14:00,75.6,67.2,29.63,North,0,0.0,0.0,75,0.00,,,0.00,WUHU216HW,2013-06-30 01:14:00,
2013-06-29 21:19:00,75.2,66.8,29.63,North,0,0.0,0.0,75,0.00,,,0.00,WUHU216HW,2013-06-30 01:19:00,
2013-06-29 21:24:00,75.2,67.1,29.63,North,0,0.0,0.0,76,0.00,,,0.00,WUHU216HW,2013-06-30 01:24:00,
2013-06-29 21:29:00,74.9,66.9,29.64,North,0,0.0,0.0,76,0.00,,,0.00,WUHU216HW,2013-06-30 01:29:00,
2013-06-29 21:34:00,74.9,67.2,29.64,North,0,0.0,0.0,77,0.00,,,0.00,WUHU216HW,2013-06-30 01:34:00,
2013-06-29 21:39:00,74.9,67.6,29.64,North,0,0.0,0.0,78,0.00,,,0.00,WUHU216HW,2013-06-30 01:39:00,
2013-06-29 21:44:00,74.9,67.6,29.64,North,0,0.0,0.0,78,0.00,,,0.00,WUHU216HW,2013-06-30 01:44:00,
2013-06-29 21:49:00,74.9,67.6,29.65,North,0,0.0,0.0,78,0.00,,,0.00,WUHU216HW,2013-06-30 01:49:00,
2013-06-29 21:54:00,74.7,67.9,29.65,North,0,0.0,0.0,79,0.00,,,0.00,WUHU216HW,2013-06-30 01:54:00,
2013-06-29 21:59:00,74.5,68.0,29.65,North,0,0.0,0.0,80,0.00,,,0.00,WUHU216HW,2013-06-30 01:59:00,
2013-06-29 22:04:00,74.3,67.9,29.65,North,0,0.0,0.0,80,0.00,,,0.00,WUHU216HW,2013-06-30 02:04:00,
2013-06-29 22:09:00,74.2,68.1,29.65,North,0,0.0,0.0,81,0.00,,,0.00,WUHU216HW,2013-06-30 02:09:00,
2013-06-29 22:14:00,74.2,68.1,29.65,North,0,0.0,0.0,81,0.00,,,0.00,WUHU216HW,2013-06-30 02:14:00,
2013-06-29 22:19:00,73.8,67.7,29.65,North,0,0.0,0.0,81,0.00,,,0.00,WUHU216HW,2013-06-30 02:19:00,
2013-06-29 22:24:00,73.8,68.1,29.65,North,0,0.0,0.0,82,0.00,,,0.00,WUHU216HW,2013-06-30 02:24:00,
2013-06-29 22:29:00,74.0,68.2,29.65,North,0,0.0,0.0,82,0.00,,,0.00,WUHU216HW,2013-06-30 02:29:00,
2013-06-29 22:34:00,74.0,68.2,29.65,North,0,0.0,0.0,82,0.00,,,0.00,WUHU216HW,2013-06-30 02:34:00,
2013-06-29 22:39:00,73.8,68.1,29.66,North,0,0.0,0.0,82,0.00,,,0.00,WUHU216HW,2013-06-30 02:39:00,
2013-06-29 22:44:00,73.8,68.3,29.65,North,0,0.0,0.0,83,0.00,,,0.00,WUHU216HW,2013-06-30 02:44:00,
2013-06-29 22:49:00,73.6,68.1,29.65,North,0,0.0,0.0,83,0.00,,,0.00,WUHU216HW,2013-06-30 02:49:00,
2013-06-29 22:54:00,73.4,68.0,29.66,North,0,0.0,0.0,83,0.00,,,0.00,WUHU216HW,2013-06-30 02:54:00,
2013-06-29 22:59:00,73.1,68.0,29.66,North,0,0.0,0.0,84,0.00,,,0.00,WUHU216HW,2013-06-30 02:59:00,
2013-06-29 23:04:00,72.9,68.1,29.66,North,0,0.0,0.0,85,0.00,,,0.00,WUHU216HW,2013-06-30 03:04:00,
2013-06-29 23:09:00,72.9,67.8,29.66,North,0,0.0,0.0,84,0.00,,,0.00,WUHU216HW,2013-06-30 03:09:00,
2013-06-29 23:14:00,72.7,67.6,29.66,North,0,0.0,0.0,84,0.00,,,0.00,WUHU216HW,2013-06-30 03:14:00,
2013-06-29 23:19:00,72.5,68.1,29.66,North,0,0.0,0.0,86,0.00,,,0.00,WUHU216HW,2013-06-30 03:19:00,
2013-06-29 23:24:00,72.2,67.1,29.66,North,0,0.0,0.0,84,0.00,,,0.00,WUHU216HW,2013-06-30 03:24:00,
2013-06-29 23:29:00,71.6,66.9,29.66,North,0,0.0,0.0,85,0.00,,,0.00,WUHU216HW,2013-06-30 03:29:00,
2013-06-29 23:34:00,71.3,66.9,29.66,North,0,0.0,0.0,86,0.00,,,0.00,WUHU216HW,2013-06-30 03:34:00,
2013-06-29 23:39:00,71.3,66.9,29.65,North,0,0.0,0.0,86,0.00,,,0.00,WUHU216HW,2013-06-30 03:39:00,
2013-06-29 23:44:00,70.9,66.5,29.66,North,0,0.0,0.0,86,0.00,,,0.00,WUHU216HW,2013-06-30 03:44:00,
2013-06-29 23:49:00,70.9,66.5,29.66,North,0,0.0,0.0,86,0.00,,,0.00,WUHU216HW,2013-06-30 03:49:00,
2013-06-29 23:54:00,71.1,66.3,29.65,North,0,0.0,0.0,85,0.00,,,0.00,WUHU216HW,2013-06-30 03:54:00,
2013-06-29 23:59:00,71.3,66.5,29.66,North,0,0.0,0.0,85,0.00,,,0.00,WUHU216HW,2013-06-30 03:59:00,